Measurement date,Total daily rainfall,Maximum daily air temperature,Minimum daily air temperature
Date ,Rainfall,Air temperature,Air temperature
Units: Year month day,Units: millimetre,Units: degree Celsius,Units: degree Celsius
2012-01-01,2,12.00,6.70
2012-01-02,17,11.60,3.00
2012-01-03,6.6,7.60,3.80
2012-01-04,17.5,9.30,3.20
2012-01-05,0,7.40,3.10
2012-01-06,1.3,9.90,1.40
2012-01-07,0.1,8.40,3.00
2012-01-08,0.4,10.60,7.20
2012-01-09,0,9.00,7.70
2012-01-10,1.4,9.90,4.30
2012-01-11,1.6,10.80,7.20
2012-01-12,0,8.30,6.80
2012-01-13,0,4.90,0.10
2012-01-14,0,4.80,-1.70
2012-01-15,0,3.00,-3.40
2012-01-16,0,3.70,-3.50
2012-01-17,3.3,10.20,-1.60
2012-01-18,1.1,8.30,1.30
2012-01-19,4.1,6.70,3.60
2012-01-20,5.8,10.10,1.90
2012-01-21,3.9,8.40,4.50
2012-01-22,0.4,8.40,5.40
2012-01-23,8.9,6.70,3.00
2012-01-24,3.8,9.40,1.70
2012-01-25,4.7,9.40,2.50
2012-01-26,5,5.30,1.70
2012-01-27,0.5,4.10,1.60
2012-01-28,0,1.00,-1.70
2012-01-29,0,2.80,-0.20
2012-01-30,0,4.10,-0.70
2012-01-31,0,2.50,-0.20
2012-02-01,0,3.90,-1.10
2012-02-02,0,2.40,-5.20
2012-02-03,0.1,3.00,-2.20
2012-02-04,6.7,3.90,-0.70
2012-02-05,0.1,4.10,-2.50
2012-02-06,0,5.40,0.00
2012-02-07,0,3.50,-3.50
2012-02-08,3.9,3.60,-3.30
2012-02-09,1.7,2.40,-3.40
2012-02-10,1,2.70,-3.50
2012-02-11,1.2,3.40,0.90
2012-02-12,0.3,7.80,1.20
2012-02-13,0.1,9.80,2.20
2012-02-14,0,9.50,4.20
2012-02-15,0,11.90,6.60
2012-02-16,0,10.10,4.90
2012-02-17,7.6,10.00,4.90
2012-02-18,2.1,6.60,4.00
2012-02-19,0.9,6.50,-1.10
2012-02-20,2.3,9.50,2.30
2012-02-21,11.25,10.95,6.50
2012-02-22,20.2,12.40,8.10
2012-02-23,0,12.20,8.00
2012-02-24,0.4,12.10,7.90
2012-02-25,0,8.80,5.90
2012-02-26,1.9,9.90,5.50
2012-02-27,0.4,11.50,6.40
2012-02-28,0,13.00,9.50
2012-02-29,0,13.00,7.70
2012-03-01,2,10.10,7.30
2012-03-02,2.9,10.50,6.40
2012-03-03,5.6,10.20,3.90
2012-03-04,0.1,8.00,2.30
2012-03-05,0,10.40,-0.50
2012-03-06,6.9,10.20,-1.30
2012-03-07,3.2,7.90,3.10
2012-03-08,0.3,9.90,2.50
2012-03-09,0,13.40,7.10
2012-03-10,0,13.40,7.40
2012-03-11,0.1,14.10,7.60
2012-03-12,0,9.60,8.10
2012-03-13,0,9.80,6.70
2012-03-14,0,7.40,6.10
2012-03-15,0.7,8.40,5.30
2012-03-16,2.8,9.10,6.70
2012-03-17,0,10.90,2.10
2012-03-18,0,11.60,1.70
2012-03-19,0.2,10.00,2.10
2012-03-20,0.1,13.40,8.10
2012-03-21,0,12.00,8.50
2012-03-22,0,16.40,1.70
2012-03-23,0,14.10,5.20
2012-03-24,0,17.40,6.20
2012-03-25,0,18.80,6.80
2012-03-26,0,18.60,5.00
2012-03-27,0,20.20,3.90
2012-03-28,0,20.40,3.80
2012-03-29,0,17.50,6.70
2012-03-30,0,16.10,5.50
2012-03-31,0,12.20,4.90
2012-04-01,0,13.00,0.70
2012-04-02,2.7,12.80,6.70
2012-04-03,0.1,6.10,4.50
2012-04-04,0,8.60,1.80
2012-04-05,0.1,10.50,-1.40
2012-04-06,0.1,11.10,5.20
2012-04-07,0.1,11.70,5.20
2012-04-08,0.7,12.90,6.40
2012-04-09,6.2,9.40,5.40
2012-04-10,7,10.00,4.60
2012-04-11,7.9,11.50,3.00
2012-04-12,3.5,10.40,2.40
2012-04-13,0,11.10,0.70
2012-04-14,0,10.00,-0.10
2012-04-15,0,9.90,-0.50
2012-04-16,15.1,9.40,-1.20
2012-04-17,6.4,10.60,4.30
2012-04-18,3.7,11.80,2.40
2012-04-19,0.2,13.30,7.00
2012-04-20,0.3,11.50,4.50
2012-04-21,2.2,12.90,5.40
2012-04-22,0.1,12.80,4.80
2012-04-23,0,11.80,3.00
2012-04-24,2.2,11.50,3.40
2012-04-25,2,12.70,4.10
2012-04-26,1.9,10.60,6.00
2012-04-27,0.3,11.80,3.10
2012-04-28,0,12.00,3.20
2012-04-29,6.7,11.90,0.50
2012-04-30,0.1,15.40,4.50
2012-05-01,0.1,11.20,8.00
2012-05-02,0,16.40,6.60
2012-05-03,0.6,14.90,3.90
2012-05-04,0,12.60,5.40
2012-05-05,0.3,8.80,0.70
2012-05-06,0.4,9.60,0.40
2012-05-07,6.9,10.50,-0.10
2012-05-08,0,12.80,5.80
2012-05-09,14.3,13.80,1.70
2012-05-10,24.1,8.40,5.40
2012-05-11,0,11.80,4.00
2012-05-12,0.1,15.00,2.40
2012-05-13,9,11.00,5.50
2012-05-14,2.1,13.20,5.00
2012-05-15,0.3,12.80,2.90
2012-05-16,1.2,12.20,2.60
2012-05-17,3.5,10.90,7.70
2012-05-18,0.3,12.00,6.40
2012-05-19,0,11.40,5.60
2012-05-20,0,15.80,2.70
2012-05-21,0,18.80,6.20
2012-05-22,0,22.30,8.70
2012-05-23,0,23.60,10.00
2012-05-24,0,25.60,10.50
2012-05-25,0,25.80,14.40
2012-05-26,0,25.10,12.10
2012-05-27,0,25.20,9.50
2012-05-28,0,25.50,11.00
2012-05-29,0,20.00,10.40
2012-05-30,5.2,18.00,10.50
2012-05-31,1.2,18.50,12.70
2012-06-01,0,17.40,10.30
2012-06-02,0,12.10,9.40
2012-06-03,0,12.90,7.60
2012-06-04,0,15.60,3.30
2012-06-05,23,14.80,4.40
2012-06-06,0.1,15.60,10.20
2012-06-07,8.7,15.80,10.70
2012-06-08,11.7,15.50,11.60
2012-06-09,7,18.50,9.00
2012-06-10,0.1,17.70,10.20
2012-06-11,0,15.50,9.20
2012-06-12,0.1,14.90,7.10
2012-06-13,0.3,16.20,6.80
2012-06-14,7.6,17.40,8.80
2012-06-15,30.2,14.20,8.00
2012-06-16,15,13.90,9.50
2012-06-17,ND,15.00,0.00
2012-06-18,3.5,16.20,4.80
2012-06-19,0,17.00,10.00
2012-06-20,0,19.40,6.40
2012-06-21,29.2,14.20,11.20
2012-06-22,8.6,15.60,11.20
2012-06-23,3.2,16.20,10.60
2012-06-24,3.6,18.20,10.70
2012-06-25,4,18.10,9.00
2012-06-26,4.3,18.00,8.40
2012-06-27,2.3,18.00,7.70
2012-06-28,9.3,19.00,13.60
2012-06-29,3.4,15.60,12.70
2012-06-30,0.4,16.40,12.90
2012-07-01,3.9,16.60,10.60
2012-07-02,2.2,15.80,11.20
2012-07-03,5.1,18.10,13.00
2012-07-04,4.5,21.70,14.20
2012-07-05,0.1,23.20,15.30
2012-07-06,12.3,19.70,15.30
2012-07-07,0,20.00,14.30
2012-07-08,1.2,18.70,11.80
2012-07-09,7.6,16.00,12.50
2012-07-10,8.3,14.30,10.70
2012-07-11,0.7,18.60,11.00
2012-07-12,0.1,18.10,8.90
2012-07-13,0.8,17.00,9.20
2012-07-14,3.9,15.10,9.80
2012-07-15,1.1,16.90,7.10
2012-07-16,1.9,18.20,7.90
2012-07-17,6.8,16.80,10.20
2012-07-18,4.3,17.20,14.50
2012-07-19,0.9,17.10,10.20
2012-07-20,0,17.50,10.30
2012-07-21,0.4,17.60,7.50
2012-07-22,13.9,16.50,13.10
2012-07-23,19.5,16.00,14.80
2012-07-24,5.2,18.70,14.30
2012-07-25,0.2,22.50,11.80
2012-07-26,0.9,17.40,13.40
2012-07-27,0,18.30,10.20
2012-07-28,4.8,16.50,9.60
2012-07-29,1.7,16.10,10.20
2012-07-30,0.1,16.10,9.70
2012-07-31,16,15.90,5.70
2012-08-01,10.1,18.50,15.10
2012-08-02,5.1,19.50,14.40
2012-08-03,7.9,20.10,12.60
2012-08-04,0.9,19.40,11.80
2012-08-05,0.1,20.60,13.60
2012-08-06,5.5,15.40,9.10
2012-08-07,2.4,16.50,11.10
2012-08-08,0,19.90,10.70
2012-08-09,19,19.60,7.00
2012-08-10,9.1,17.80,10.00
2012-08-11,9.9,14.80,13.60
2012-08-12,10.2,17.30,12.20
2012-08-13,1.6,16.90,13.10
2012-08-14,0.2,19.60,12.90
2012-08-15,7,18.20,8.90
2012-08-16,1.8,22.00,11.00
2012-08-17,0.7,17.70,7.50
2012-08-18,0,18.80,9.50
2012-08-19,2,17.00,7.20
2012-08-20,3.9,17.50,11.00
2012-08-21,0,18.10,10.50
2012-08-22,0,17.90,8.20
2012-08-23,0.4,16.00,9.00
2012-08-24,6,17.40,9.40
2012-08-25,0.2,17.30,9.80
2012-08-26,0.8,18.90,8.20
2012-08-27,3.8,17.50,9.50
2012-08-28,0,15.60,9.10
2012-08-29,0.1,16.20,8.50
2012-08-30,4.6,14.60,11.20
2012-08-31,0,15.10,9.40
2012-09-01,3,17.50,10.00
2012-09-02,6.9,18.30,12.20
2012-09-03,2.6,17.20,14.20
2012-09-04,5.2,16.90,9.60
2012-09-05,21,17.60,9.90
2012-09-06,4.6,15.80,11.60
2012-09-07,0.6,16.40,10.40
2012-09-08,3.4,18.10,10.70
2012-09-09,5.6,18.80,10.80
2012-09-10,2.8,18.50,13.10
2012-09-11,11.3,16.00,12.90
2012-09-12,1.2,15.30,12.20
2012-09-13,0.3,15.60,11.40
2012-09-14,0.1,17.20,10.60
2012-09-15,0,15.00,3.60
2012-09-16,13.2,15.00,8.70
2012-09-17,4.1,14.40,9.70
2012-09-18,4.3,16.00,6.30
2012-09-19,4.6,17.00,7.00
2012-09-20,0.6,16.00,8.00
2012-09-21,9.3,13.30,10.60
2012-09-22,0.1,15.30,9.20
2012-09-23,7.2,16.50,11.50
2012-09-24,3.6,17.00,12.60
2012-09-25,0,15.60,10.70
2012-09-26,0.1,15.90,8.90
2012-09-27,0,16.30,10.90
2012-09-28,0,23.20,11.20
2012-09-29,0,18.50,14.30
2012-09-30,0.1,23.10,12.10
2012-10-01,4.7,13.80,10.20
2012-10-02,9.7,13.90,8.80
2012-10-03,0.4,13.10,7.40
2012-10-04,8.7,13.30,1.40
2012-10-05,1.5,13.70,2.60
2012-10-06,0.1,16.10,3.60
2012-10-07,0,11.90,1.80
2012-10-08,0,15.20,1.60
2012-10-09,0,15.10,1.20
2012-10-10,0.7,12.60,0.00
2012-10-11,34.7,10.90,5.30
2012-10-12,0,12.60,8.30
2012-10-13,2.3,12.60,3.40
2012-10-14,0.8,12.60,3.40
2012-10-15,13.3,9.30,4.60
2012-10-16,8.8,9.00,4.60
2012-10-17,22.7,10.40,1.70
2012-10-18,6.8,12.20,5.20
2012-10-19,9.4,12.20,7.30
2012-10-20,0.1,14.70,8.30
2012-10-21,0,15.20,5.70
2012-10-22,0,11.50,4.30
2012-10-23,0,12.80,7.00
2012-10-24,0,12.60,10.20
2012-10-25,0,10.00,11.30
2012-10-26,0,7.30,0.60
2012-10-27,1.4,9.80,-0.90
2012-10-28,0.9,9.50,3.00
2012-10-29,0.7,9.60,4.10
2012-10-30,8,9.50,2.10
2012-10-31,11.1,9.50,3.00
2012-11-01,2.6,7.90,2.90
2012-11-02,11.6,9.30,3.60
2012-11-03,0.7,7.90,1.10
2012-11-04,0,10.10,2.40
2012-11-05,0.7,10.30,0.90
2012-11-06,0.1,11.20,1.20
2012-11-07,3.1,10.60,8.60
2012-11-08,5.1,12.20,7.90
2012-11-09,5.1,10.40,8.40
2012-11-10,1.1,9.20,2.60
2012-11-11,2.4,9.80,1.90
2012-11-12,7.4,12.30,2.20
2012-11-13,7.2,11.90,6.80
2012-11-14,2.4,11.80,10.50
2012-11-15,0.8,11.10,8.50
2012-11-16,1.3,9.10,4.90
2012-11-17,1,8.10,5.20
2012-11-18,27,8.60,2.10
2012-11-19,12.5,11.80,2.00
2012-11-20,2.8,12.40,8.10
2012-11-21,6.7,10.50,5.70
2012-11-22,28.7,10.20,5.90
2012-11-23,2,9.30,4.90
2012-11-24,10.9,4.90,-1.10
2012-11-25,11.3,6.30,0.10
2012-11-26,0,6.60,3.00
2012-11-27,0,2.80,4.20
2012-11-28,0,6.10,0.30
2012-11-29,0,2.90,-2.20
2012-11-30,0.2,2.40,-3.70
2012-12-01,0,5.20,-1.60
2012-12-02,5.4,3.30,-3.10
2012-12-03,3.4,5.70,-0.80
2012-12-04,1.1,4.40,1.40
2012-12-05,3,4.00,-1.20
2012-12-06,13.7,5.60,-4.10
2012-12-07,0,7.30,0.40
2012-12-08,1,8.50,-1.30
2012-12-09,0,8.90,1.30
2012-12-10,0,6.30,-0.60
2012-12-11,0,2.90,-3.10
2012-12-12,0,1.90,-3.40
2012-12-13,0.1,2.60,-0.60
2012-12-14,11.7,7.10,-0.90
2012-12-15,1.4,8.00,1.10
2012-12-16,4.4,8.20,1.10
2012-12-17,0.3,6.10,4.80
2012-12-18,0,9.10,3.10
2012-12-19,12.4,6.40,5.10
2012-12-20,33.7,5.50,4.60
2012-12-21,4.4,5.40,4.20
2012-12-22,13.6,10.40,4.50
2012-12-23,0.2,9.40,5.30
2012-12-24,29.9,9.40,7.20
2012-12-25,3.5,6.90,3.90
2012-12-26,17.2,6.80,4.80
2012-12-27,5.5,10.20,3.10
2012-12-28,3.6,10.80,2.80
2012-12-29,2.1,8.60,8.10
2012-12-30,12.9,10.50,3.10
2012-12-31,0.6,10.30,3.50
2013-01-01,3,8.00,3.30
2013-01-02,0.2,11.90,4.50
2013-01-03,0,11.40,7.80
2013-01-04,0.5,11.40,9.60
2013-01-05,1.7,10.30,7.90
2013-01-06,1.8,9.20,3.80
2013-01-07,10.7,10.20,6.30
2013-01-08,0.1,10.90,8.40
2013-01-09,0.1,7.80,2.20
2013-01-10,0.2,8.00,-1.60
2013-01-11,0.1,3.10,-1.60
2013-01-12,0.1,5.50,1.20
2013-01-13,5.6,2.80,-1.40
2013-01-14,0,4.90,-0.10
2013-01-15,0,3.30,-1.60
2013-01-16,0,0.10,-3.50
2013-01-17,0,1.80,-1.80
2013-01-18,0.1,1.90,-0.20
2013-01-19,0.1,2.00,-1.00
2013-01-20,1.3,1.50,0.40
2013-01-21,1.3,1.90,0.10
2013-01-22,0.3,3.50,-1.20
2013-01-23,0,2.20,-0.70
2013-01-24,0,3.20,0.40
2013-01-25,14.8,3.90,-0.70
2013-01-26,15.9,6.90,-0.70
2013-01-27,0.2,6.70,3.20
2013-01-28,13.1,9.20,3.60
2013-01-29,5,10.90,4.90
2013-01-30,6.8,7.60,5.60
2013-01-31,0.9,8.10,5.00
2013-02-01,0,7.60,4.40
2013-02-02,2.1,8.80,-1.30
2013-02-03,2.1,10.10,0.40
2013-02-04,8.4,7.00,4.00
2013-02-05,1.6,5.50,-0.10
2013-02-06,0.1,6.50,1.00
2013-02-07,0,4.50,-0.20
2013-02-08,3.7,8.10,0.80
2013-02-09,5.5,3.70,2.10
2013-02-10,2.4,3.70,1.40
2013-02-11,0.1,6.50,1.40
2013-02-12,3.8,3.96,0.20
2013-02-13,19,7.40,-0.40
2013-02-14,0.3,9.60,-0.70
2013-02-15,0.1,9.20,2.50
2013-02-16,0,7.50,2.20
2013-02-17,0,9.10,2.80
2013-02-18,0,7.40,-1.20
2013-02-19,0,10.10,-2.80
2013-02-20,0,5.20,1.40
2013-02-21,0,4.30,-2.10
2013-02-22,0,2.80,-0.50
2013-02-23,0,6.10,0.60
2013-02-24,0,6.20,-0.90
2013-02-25,0,9.90,-1.20
2013-02-26,0,9.70,0.40
2013-02-27,0,9.90,-2.20
2013-02-28,0,13.10,-0.60
2013-03-01,0,10.50,4.20
2013-03-02,0,9.90,-1.80
2013-03-03,0,7.80,1.60
2013-03-04,0,7.30,1.80
2013-03-05,0,11.00,-2.10
2013-03-06,2.4,7.00,0.40
2013-03-07,2.5,8.80,3.90
2013-03-08,2.4,5.20,4.60
2013-03-09,2.5,4.70,3.10
2013-03-10,0,6.40,1.60
2013-03-11,0.1,3.30,-3.50
2013-03-12,0,7.20,-4.40
2013-03-13,0,6.90,-1.40
2013-03-14,2.9,6.50,-3.60
2013-03-15,4.8,8.90,0.20
2013-03-16,9,4.40,1.50
2013-03-17,6.9,6.00,0.60
2013-03-18,0.4,4.20,1.40
2013-03-19,0.7,3.90,0.50
2013-03-20,0,4.60,1.60
2013-03-21,2,5.80,-2.20
2013-03-22,17.6,1.20,-0.40
2013-03-23,0.9,1.80,-0.10
2013-03-24,0.2,2.80,-0.20
2013-03-25,0,3.00,0.20
2013-03-26,0.1,3.60,-0.20
2013-03-27,0,5.10,-1.60
2013-03-28,0,6.50,-1.00
2013-03-29,0,6.90,-2.10
2013-03-30,0,5.90,-2.20
2013-03-31,0,5.20,-2.80
2013-04-01,0,7.40,-1.80
2013-04-02,0,7.50,-1.30
2013-04-03,0,10.70,-2.30
2013-04-04,0.3,8.90,-1.10
2013-04-05,0,7.40,1.60
2013-04-06,0,10.00,-2.80
2013-04-07,0,9.00,-0.60
2013-04-08,0,6.70,2.10
2013-04-09,0,9.90,-0.80
2013-04-10,2.1,10.20,1.60
2013-04-11,1.5,8.90,2.80
2013-04-12,0.5,10.90,3.30
2013-04-13,29.2,13.00,4.00
2013-04-14,4.4,11.30,6.10
2013-04-15,5.3,11.60,8.20
2013-04-16,7.9,12.80,7.80
2013-04-17,23.4,10.70,4.80
2013-04-18,3.5,11.30,7.10
2013-04-19,0.1,12.20,4.30
2013-04-20,2.9,11.20,4.70
2013-04-21,1.3,11.40,7.10
2013-04-22,0.2,12.90,4.40
2013-04-23,5.7,13.50,7.50
2013-04-24,4.3,12.30,8.30
2013-04-25,0.9,12.60,5.30
2013-04-26,1.8,11.60,2.90
2013-04-27,0,10.80,2.40
2013-04-28,1.7,11.50,4.90
2013-04-29,0.3,12.10,4.50
2013-04-30,0.1,12.60,1.90
2013-05-01,0,13.90,4.50
2013-05-02,0.3,12.60,0.70
2013-05-03,5.7,11.70,8.40
2013-05-04,0.5,11.80,4.60
2013-05-05,0,15.20,8.00
2013-05-06,0,13.70,8.70
2013-05-07,0,20.60,3.80
2013-05-08,0.7,20.50,11.10
2013-05-09,9.8,11.50,7.90
2013-05-10,2.4,12.90,6.50
2013-05-11,0.2,12.10,6.40
2013-05-12,3.1,11.70,6.70
2013-05-13,6.2,10.20,4.70
2013-05-14,0.2,11.00,3.40
2013-05-15,0.4,13.60,3.60
2013-05-16,0.1,12.60,2.90
2013-05-17,11.9,17.40,5.10
2013-05-18,17,11.50,8.00
2013-05-19,0,14.90,9.50
2013-05-20,0.1,18.60,11.40
2013-05-21,0,17.00,11.20
2013-05-22,0,14.50,7.50
2013-05-23,1.8,11.80,3.80
2013-05-24,0,14.40,5.40
2013-05-25,0,16.60,2.60
2013-05-26,5.8,16.50,3.70
2013-05-27,12.5,11.40,8.40
2013-05-28,1.7,15.21,8.20
2013-05-29,0,18.40,7.00
2013-05-30,0,19.40,11.90
2013-05-31,0,20.90,9.40
2013-06-01,0,17.00,5.20
2013-06-02,0,17.40,4.40
2013-06-03,0.1,18.70,8.20
2013-06-04,0,21.20,9.30
2013-06-05,2.1,20.40,8.20
2013-06-06,0,20.60,10.60
2013-06-07,0.1,22.60,8.90
2013-06-08,0,20.70,8.10
2013-06-09,0,20.40,9.80
2013-06-10,0,16.90,10.00
2013-06-11,6.6,14.50,8.10
2013-06-12,5.4,17.90,11.20
2013-06-13,0,17.80,10.60
2013-06-14,10.8,15.00,7.80
2013-06-15,2.8,15.70,8.20
2013-06-16,0,17.50,8.80
2013-06-17,0.1,19.90,9.40
2013-06-18,0,20.40,12.90
2013-06-19,6.2,20.80,12.40
2013-06-20,0,21.50,8.90
2013-06-21,5.8,19.90,13.40
2013-06-22,0.5,15.50,10.00
2013-06-23,0,18.20,11.10
2013-06-24,0,16.60,9.10
2013-06-25,0,18.00,6.70
2013-06-26,0,19.90,9.70
2013-06-27,6.8,15.70,10.00
2013-06-28,0.2,17.60,11.90
2013-06-29,0.2,15.30,9.80
2013-06-30,2.5,15.70,12.70
2013-07-01,0.9,16.90,10.00
2013-07-02,4.6,16.10,11.50
2013-07-03,1.6,18.10,11.70
2013-07-04,0.1,19.20,12.90
2013-07-05,0,18.20,12.60
2013-07-06,0,20.10,9.00
2013-07-07,0,23.60,13.90
2013-07-08,0,26.00,12.30
2013-07-09,0,28.40,15.20
2013-07-10,0,23.00,14.90
2013-07-11,0,24.10,12.50
2013-07-12,0,27.10,15.00
2013-07-13,0,26.60,16.00
2013-07-14,0,24.00,12.30
2013-07-15,0,23.50,9.40
2013-07-16,0,25.00,15.60
2013-07-17,0,24.80,13.70
2013-07-18,0,29.00,13.40
2013-07-19,0,28.90,15.40
2013-07-20,0,24.40,13.60
2013-07-21,0,24.50,14.30
2013-07-22,4.6,26.20,14.30
2013-07-23,5.7,21.40,15.60
2013-07-24,17.5,22.20,14.70
2013-07-25,0.5,22.30,15.20
2013-07-26,0.2,21.50,15.30
2013-07-27,58.4,23.60,12.50
2013-07-28,18.6,20.60,14.20
2013-07-29,0,20.40,14.70
2013-07-30,0.8,19.50,12.60
2013-07-31,12.5,19.60,9.90
2013-08-01,2.4,20.60,14.30
2013-08-02,0.1,19.90,16.80
2013-08-03,1.8,18.60,13.60
2013-08-04,3.1,20.10,13.20
2013-08-05,0.4,19.90,14.50
2013-08-06,0,18.00,8.80
2013-08-07,0,21.10,8.70
2013-08-08,9.3,21.00,7.50
2013-08-09,0.1,19.60,11.40
2013-08-10,0.2,17.20,11.30
2013-08-11,0.8,18.80,10.40
2013-08-12,0.3,19.80,8.90
2013-08-13,0.1,19.40,4.60
2013-08-14,9.5,19.00,10.00
2013-08-15,12.8,19.50,15.20
2013-08-16,1.8,19.00,8.40
2013-08-17,7.2,18.20,13.60
2013-08-18,0.8,16.90,10.90
2013-08-19,0,18.60,9.70
2013-08-20,2,18.10,10.70
2013-08-21,2.1,18.40,14.90
2013-08-22,0,22.10,15.00
2013-08-23,0.1,19.30,12.90
2013-08-24,0,20.10,13.40
2013-08-25,0,22.40,9.80
2013-08-26,0,22.10,12.80
2013-08-27,0,21.20,11.20
2013-08-28,0.1,18.00,12.00
2013-08-29,0,19.00,11.10
2013-08-30,0.1,19.40,11.10
2013-08-31,0.1,17.70,8.50
2013-09-01,0,17.10,11.10
2013-09-02,0.1,22.60,13.10
2013-09-03,0,20.40,14.20
2013-09-04,0,18.80,12.60
2013-09-05,0.1,18.30,11.90
2013-09-06,25.5,12.30,9.40
2013-09-07,6.1,13.40,7.90
2013-09-08,2.5,14.00,7.60
2013-09-09,0.2,17.60,8.30
2013-09-10,0,18.90,8.70
2013-09-11,5.7,14.60,9.60
2013-09-12,3.5,17.00,12.30
2013-09-13,6.3,12.20,8.40
2013-09-14,5.5,16.90,5.40
2013-09-15,14.9,15.40,5.60
2013-09-16,1.6,12.90,5.40
2013-09-17,1.3,11.00,7.90
2013-09-18,6.6,15.60,5.30
2013-09-19,0.1,16.90,6.90
2013-09-20,0,14.70,8.10
2013-09-21,0.2,17.50,11.20
2013-09-22,0.2,20.70,12.90
2013-09-23,0,16.20,10.90
2013-09-24,0,17.00,13.40
2013-09-25,0,17.10,13.40
2013-09-26,2.3,17.20,9.40
2013-09-27,0.2,16.50,11.40
2013-09-28,0.1,19.20,7.40
2013-09-29,0,17.80,9.00
2013-09-30,0,15.90,8.90
2013-10-01,8.1,15.10,9.00
2013-10-02,10.7,17.10,11.70
2013-10-03,22.4,14.20,12.60
2013-10-04,0.7,17.80,14.60
2013-10-05,0.2,17.00,9.80
2013-10-06,3.3,17.30,11.80
2013-10-07,4.9,17.00,13.80
2013-10-08,0.4,16.70,13.10
2013-10-09,0.4,12.40,9.10
2013-10-10,0.1,12.80,4.20
2013-10-11,0,13.10,5.90
2013-10-12,0,11.70,7.10
2013-10-13,0,14.40,7.30
2013-10-14,0,15.50,8.60
2013-10-15,0,15.60,8.40
2013-10-16,11.8,11.60,4.70
2013-10-17,0,15.30,6.90
2013-10-18,15.4,12.10,8.50
2013-10-19,7.2,15.50,9.80
2013-10-20,2,14.80,10.60
2013-10-21,33.5,15.10,10.20
2013-10-22,17.4,14.60,10.20
2013-10-23,0.8,13.50,12.00
2013-10-24,14.9,14.40,6.50
2013-10-25,7.8,15.10,8.40
2013-10-26,18.3,13.10,11.00
2013-10-27,3.1,13.20,8.20
2013-10-28,0.7,12.10,8.20
2013-10-29,0.3,12.10,5.70
2013-10-30,10.8,12.80,4.20
2013-10-31,0.4,12.80,3.00
2013-11-01,0.1,11.90,1.40
2013-11-02,11.8,10.20,3.10
2013-11-03,0.2,10.20,4.20
2013-11-04,1.2,10.10,-1.00
2013-11-05,2.3,7.20,-0.80
2013-11-06,0.5,8.70,0.60
2013-11-07,0.2,10.60,2.40
2013-11-08,0,10.20,3.90
2013-11-09,0,10.10,1.40
2013-11-10,3.8,11.20,-1.30
2013-11-11,0.3,13.80,1.60
2013-11-12,0.1,11.10,5.80
2013-11-13,1.4,10.90,4.80
2013-11-14,0,10.00,4.70
2013-11-15,0,10.20,2.90
2013-11-16,0.3,11.60,8.00
2013-11-17,9.2,7.80,0.40
2013-11-18,0.1,9.50,2.90
2013-11-19,7.7,7.20,-1.80
2013-11-20,0.1,8.00,1.00
2013-11-21,0,4.90,1.50
2013-11-22,0.1,6.10,-1.10
2013-11-23,0,4.80,-2.70
2013-11-24,0,7.00,0.50
2013-11-25,0,7.30,-2.00
2013-11-26,0.6,11.10,-0.20
2013-11-27,0,11.50,6.70
2013-11-28,0.6,10.50,5.50
2013-11-29,0.8,7.20,4.40
2013-11-30,0,8.80,2.30
2013-12-01,0,11.80,3.60
2013-12-02,0,9.40,5.10
2013-12-03,0.4,9.90,6.10
2013-12-04,7.8,9.60,1.70
2013-12-05,0.6,7.80,4.20
2013-12-06,1.4,7.40,0.60
2013-12-07,2.4,10.20,1.10
2013-12-08,3.4,11.70,6.90
2013-12-09,0.2,12.30,9.90
2013-12-10,0.4,10.80,3.00
2013-12-11,5.2,10.80,7.90
2013-12-12,10.3,11.70,5.50
2013-12-13,1.3,11.80,8.80
2013-12-14,22.1,11.40,4.00
2013-12-15,9.6,11.40,4.70
2013-12-16,ND,ND,5.00
2013-12-17,4.1,8.40,ND
2013-12-18,10,11.00,1.30
2013-12-19,30.3,7.50,3.10
2013-12-20,15.1,11.30,2.70
2013-12-21,3.6,8.90,6.40
2013-12-22,31.5,5.50,3.90
2013-12-23,3.9,10.30,3.50
2013-12-24,1.2,10.40,ND
2013-12-25,10.4,8.20,3.90
2013-12-26,2.5,9.30,-0.60
2013-12-27,0,8.40,0.60
2013-12-28,0.2,6.10,3.60
2013-12-29,43.4,9.40,3.40
2013-12-30,3.1,9.40,4.20
2013-12-31,9.8,7.30,3.40
